| DS18B20 | SHTC3 | ||||||
|---|---|---|---|---|---|---|---|
| ID | Date d/m/Y & Time | data1 สูง | data2 ต่ำ | data3 นอก | temp pcb | hum pcb | Time |
| 7472 | 31/03/2026 10:19:48 | 30.6  | 29.7  | 32.1  | 30.0  | 69.2  | 10:19 |
| 7471 | 31/03/2026 10:15:06 | 30.6  | 29.6  | 32.0  | 30.0  | 69.3  | 10:15 |
| 7470 | 31/03/2026 10:10:24 | 30.4  | 29.6  | 32.0  | 30.0  | 69.5  | 10:10 |
| 7469 | 31/03/2026 10:05:42 | 30.3  | 29.5  | 31.7  | 29.9  | 69.6  | 10:05 |
| 7468 | 31/03/2026 10:01:00 | 30.2  | 29.4  | 31.5  | 29.7  | 69.6  | 10:01 |
| 7467 | 31/03/2026 09:56:18 | 30.1  | 29.4  | 31.3  | 29.7  | 69.7  | 09:56 |
| 7466 | 31/03/2026 09:51:36 | 30.0  | 29.3  | 31.2  | 29.7  | 69.7  | 09:51 |
| 7465 | 31/03/2026 09:46:54 | 29.9  | 29.2  | 31.0  | 29.5  | 69.9  | 09:46 |
| 7464 | 31/03/2026 09:42:12 | 29.8  | 29.2  | 30.9  | 29.4  | 70.1  | 09:42 |
| 7463 | 31/03/2026 09:37:30 | 29.8  | 29.1  | 30.9  | 29.4  | 70.2  | 09:37 |
| 7462 | 31/03/2026 09:32:49 | 29.7  | 29.1  | 30.7  | 29.3  | 70.2  | 09:32 |
| 7461 | 31/03/2026 09:28:07 | 29.6  | 29.1  | 30.5  | 29.2  | 70.2  | 09:28 |
| 7460 | 31/03/2026 09:23:25 | 29.6  | 29.0  | 30.4  | 29.2  | 70.3  | 09:23 |
| 7459 | 31/03/2026 09:18:44 | 29.6  | 29.0  | 30.4  | 29.1  | 70.3  | 09:18 |
| 7458 | 31/03/2026 09:14:02 | 29.5  | 28.9  | 30.4  | 29.1  | 70.3  | 09:14 |
| 7457 | 31/03/2026 09:09:20 | 29.5  | 28.9  | 30.2  | 29.0  | 70.4  | 09:09 |
| 7456 | 31/03/2026 09:04:37 | 29.4  | 28.9  | 30.1  | 29.1  | 70.4  | 09:04 |
| 7455 | 31/03/2026 08:59:56 | 29.4  | 28.8  | 30.2  | 29.1  | 70.5  | 08:59 |
| 7454 | 31/03/2026 08:55:14 | 29.4  | 28.7  | 30.4  | 28.9  | 70.4  | 08:55 |
| 7453 | 31/03/2026 08:50:33 | 29.3  | 28.6  | 30.4  | 28.7  | 70.6  | 08:50 |
| 7452 | 31/03/2026 08:45:51 | 29.2  | 28.6  | 30.7  | 28.6  | 70.7  | 08:45 |
| 7451 | 31/03/2026 08:41:09 | 29.1  | 28.5  | 30.7  | 28.7  | 70.9  | 08:41 |
| 7450 | 31/03/2026 08:36:26 | 28.9  | 28.4  | 30.5  | 28.6  | 71.2  | 08:36 |
| 7449 | 31/03/2026 08:31:44 | 28.8  | 28.4  | 30.4  | 28.4  | 71.2  | 08:31 |